contact:dominique.lefevre@mio.osupytheas.fr, maurice.libes@osupytheas.fr, didier.mallarino@osupytheas.fr
Project:EMSO http://www.emso-fr.org/EMSO-France
Depth: 2436.0 m
Title:EMSO Ligure Ouest : Data MII capteur MICROCAT
DateTime_Computer,Latitude,Longitude,Temperature,Conductivity,Pressure,DateTime_Instrument
DateTime_Computer,Latitude,Longitude,degC,S m-1,dbar,DateTime_Instrument
2023-09-24T00:00:48Z,42.805,6.029,13.3043,4.60119,2470.73,2023-9-24T02:03:11Z
2023-09-24T00:03:51Z,42.805,6.029,13.3046,4.60112,2470.73,2023-9-24T02:06:14Z
2023-09-24T00:06:54Z,42.805,6.029,13.3035,4.60097,2470.707,2023-9-24T02:09:17Z
2023-09-24T00:09:57Z,42.805,6.029,13.3033,4.60095,2470.74,2023-9-24T02:12:20Z
2023-09-24T00:13:00Z,42.805,6.029,13.3033,4.60097,2470.693,2023-9-24T02:15:23Z
2023-09-24T00:16:03Z,42.805,6.029,13.3026,4.60096,2470.693,2023-9-24T02:18:26Z
2023-09-24T00:19:06Z,42.805,6.029,13.3026,4.60097,2470.754,2023-9-24T02:21:29Z
2023-09-24T00:22:09Z,42.805,6.029,13.3028,4.60104,2470.707,2023-9-24T02:24:32Z
2023-09-24T00:25:12Z,42.805,6.029,13.3043,4.60099,2470.693,2023-9-24T02:27:35Z
2023-09-24T00:28:16Z,42.805,6.029,13.3031,4.60097,2470.703,2023-9-24T02:30:38Z
2023-09-24T00:31:19Z,42.805,6.029,13.3029,4.60098,2470.717,2023-9-24T02:33:41Z
2023-09-24T00:34:22Z,42.805,6.029,13.3029,4.60093,2470.717,2023-9-24T02:36:44Z
2023-09-24T00:37:25Z,42.805,6.029,13.3029,4.60095,2470.74,2023-9-24T02:39:48Z
2023-09-24T00:40:28Z,42.805,6.029,13.3029,4.60094,2470.717,2023-9-24T02:42:51Z
2023-09-24T00:43:31Z,42.805,6.029,13.3029,4.60094,2470.74,2023-9-24T02:45:54Z
2023-09-24T00:46:34Z,42.805,6.029,13.3031,4.60093,2470.717,2023-9-24T02:48:57Z
2023-09-24T00:49:37Z,42.805,6.029,13.3043,4.60115,2470.717,2023-9-24T02:52:00Z
2023-09-24T00:52:40Z,42.805,6.029,13.3029,4.60097,2470.717,2023-9-24T02:55:03Z
2023-09-24T00:55:43Z,42.805,6.029,13.3029,4.60094,2470.707,2023-9-24T02:58:06Z
2023-09-24T00:58:46Z,42.805,6.029,13.3036,4.60106,2470.693,2023-9-24T03:01:09Z
2023-09-24T01:01:49Z,42.805,6.029,13.3040,4.60092,2470.754,2023-9-24T03:04:12Z
2023-09-24T01:04:53Z,42.805,6.029,13.3043,4.60108,2470.717,2023-9-24T03:07:15Z
2023-09-24T01:07:56Z,42.805,6.029,13.3029,4.60095,2470.74,2023-9-24T03:10:18Z
2023-09-24T01:10:59Z,42.805,6.029,13.3029,4.60094,2470.73,2023-9-24T03:13:21Z
2023-09-24T01:14:02Z,42.805,6.029,13.3028,4.60096,2470.707,2023-9-24T03:16:24Z
2023-09-24T01:17:05Z,42.805,6.029,13.3031,4.60092,2470.717,2023-9-24T03:19:28Z
2023-09-24T01:20:08Z,42.805,6.029,13.3024,4.60094,2470.717,2023-9-24T03:22:31Z
2023-09-24T01:23:11Z,42.805,6.029,13.3032,4.60093,2470.717,2023-9-24T03:25:34Z
2023-09-24T01:26:14Z,42.805,6.029,13.3034,4.60093,2470.693,2023-9-24T03:28:37Z
2023-09-24T01:29:17Z,42.805,6.029,13.3031,4.60093,2470.74,2023-9-24T03:31:40Z
2023-09-24T01:32:20Z,42.805,6.029,13.3028,4.60097,2470.717,2023-9-24T03:34:43Z
2023-09-24T01:35:23Z,42.805,6.029,13.3036,4.60097,2470.693,2023-9-24T03:37:46Z
2023-09-24T01:38:26Z,42.805,6.029,13.3026,4.60092,2470.74,2023-9-24T03:40:49Z
2023-09-24T01:41:30Z,42.805,6.029,13.3026,4.60094,2470.717,2023-9-24T03:43:52Z
2023-09-24T01:44:33Z,42.805,6.029,13.3025,4.60100,2470.73,2023-9-24T03:46:55Z
2023-09-24T01:47:36Z,42.805,6.029,13.3039,4.60122,2470.717,2023-9-24T03:49:58Z
2023-09-24T01:50:39Z,42.805,6.029,13.3041,4.60099,2470.717,2023-9-24T03:53:02Z
2023-09-24T01:53:42Z,42.805,6.029,13.3044,4.60107,2470.74,2023-9-24T03:56:05Z
2023-09-24T01:56:45Z,42.805,6.029,13.3030,4.60092,2470.717,2023-9-24T03:59:08Z
2023-09-24T01:59:48Z,42.805,6.029,13.3031,4.60096,2470.73,2023-9-24T04:02:11Z
2023-09-24T02:02:51Z,42.805,6.029,13.3040,4.60102,2470.73,2023-9-24T04:05:14Z
2023-09-24T02:05:54Z,42.805,6.029,13.3034,4.60093,2470.73,2023-9-24T04:08:17Z
2023-09-24T02:08:57Z,42.805,6.029,13.3042,4.60109,2470.717,2023-9-24T04:11:20Z
2023-09-24T02:12:00Z,42.805,6.029,13.3059,4.60132,2470.73,2023-9-24T04:14:23Z
2023-09-24T02:15:03Z,42.805,6.029,13.3053,4.60125,2470.693,2023-9-24T04:17:26Z
2023-09-24T02:18:07Z,42.805,6.029,13.3047,4.60103,2470.693,2023-9-24T04:20:29Z
2023-09-24T02:21:10Z,42.805,6.029,13.3046,4.60102,2470.754,2023-9-24T04:23:32Z
2023-09-24T02:24:13Z,42.805,6.029,13.3051,4.60125,2470.693,2023-9-24T04:26:35Z
2023-09-24T02:27:16Z,42.805,6.029,13.3047,4.60117,2470.717,2023-9-24T04:29:38Z
2023-09-24T02:30:19Z,42.805,6.029,13.3049,4.60098,2470.707,2023-9-24T04:32:42Z
2023-09-24T02:33:22Z,42.805,6.029,13.3029,4.60094,2470.693,2023-9-24T04:35:45Z
2023-09-24T02:36:25Z,42.805,6.029,13.3029,4.60118,2470.717,2023-9-24T04:38:48Z
2023-09-24T02:39:28Z,42.805,6.029,13.3039,4.60096,2470.717,2023-9-24T04:41:51Z
2023-09-24T02:42:31Z,42.805,6.029,13.3031,4.60092,2470.717,2023-9-24T04:44:54Z
2023-09-24T02:45:34Z,42.805,6.029,13.3045,4.60097,2470.717,2023-9-24T04:47:57Z
2023-09-24T02:48:37Z,42.805,6.029,13.3035,4.60098,2470.684,2023-9-24T04:51:00Z
2023-09-24T02:51:40Z,42.805,6.029,13.3038,4.60102,2470.74,2023-9-24T04:54:03Z
2023-09-24T02:54:43Z,42.805,6.029,13.3041,4.60095,2470.693,2023-9-24T04:57:06Z
2023-09-24T02:57:47Z,42.805,6.029,13.3038,4.60099,2470.693,2023-9-24T05:00:09Z
2023-09-24T03:00:50Z,42.805,6.029,13.3046,4.60110,2470.693,2023-9-24T05:03:12Z
2023-09-24T03:03:53Z,42.805,6.029,13.3039,4.60099,2470.717,2023-9-24T05:06:15Z
2023-09-24T03:06:56Z,42.805,6.029,13.3043,4.60118,2470.707,2023-9-24T05:09:19Z
2023-09-24T03:09:59Z,42.805,6.029,13.3051,4.60119,2470.693,2023-9-24T05:12:22Z
2023-09-24T03:13:02Z,42.805,6.029,13.3050,4.60115,2470.707,2023-9-24T05:15:25Z
2023-09-24T03:16:05Z,42.805,6.029,13.3046,4.60130,2470.693,2023-9-24T05:18:28Z
2023-09-24T03:19:08Z,42.805,6.029,13.3034,4.60098,2470.717,2023-9-24T05:21:31Z
2023-09-24T03:22:11Z,42.805,6.029,13.3034,4.60095,2470.73,2023-9-24T05:24:34Z
2023-09-24T03:25:14Z,42.805,6.029,13.3044,4.60108,2470.73,2023-9-24T05:27:37Z
2023-09-24T03:28:17Z,42.805,6.029,13.3056,4.60112,2470.754,2023-9-24T05:30:40Z
2023-09-24T03:31:20Z,42.805,6.029,13.3048,4.60132,2470.693,2023-9-24T05:33:43Z
2023-09-24T03:34:24Z,42.805,6.029,13.3050,4.60133,2470.73,2023-9-24T05:36:46Z
2023-09-24T03:37:27Z,42.805,6.029,13.3042,4.60109,2470.693,2023-9-24T05:39:49Z
2023-09-24T03:40:30Z,42.805,6.029,13.3046,4.60112,2470.717,2023-9-24T05:42:52Z
2023-09-24T03:43:33Z,42.805,6.029,13.3043,4.60125,2470.693,2023-9-24T05:45:55Z
2023-09-24T03:46:36Z,42.805,6.029,13.3064,4.60145,2470.717,2023-9-24T05:48:59Z
2023-09-24T03:49:39Z,42.805,6.029,13.3042,4.60144,2470.717,2023-9-24T05:52:02Z
2023-09-24T03:52:42Z,42.805,6.029,13.3045,4.60113,2470.73,2023-9-24T05:55:05Z
2023-09-24T03:55:45Z,42.805,6.029,13.3044,4.60119,2470.73,2023-9-24T05:58:08Z
2023-09-24T03:58:48Z,42.805,6.029,13.3052,4.60133,2470.717,2023-9-24T06:01:11Z
2023-09-24T04:01:51Z,42.805,6.029,13.3055,4.60154,2470.693,2023-9-24T06:04:14Z
2023-09-24T04:04:54Z,42.805,6.029,13.3047,4.60121,2470.717,2023-9-24T06:07:17Z
2023-09-24T04:07:57Z,42.805,6.029,13.3053,4.60131,2470.707,2023-9-24T06:10:20Z
2023-09-24T04:11:00Z,42.805,6.029,13.3045,4.60122,2470.693,2023-9-24T06:13:23Z
2023-09-24T04:14:04Z,42.805,6.029,13.3052,4.60119,2470.693,2023-9-24T06:16:26Z
2023-09-24T04:17:07Z,42.805,6.029,13.3044,4.60110,2470.693,2023-9-24T06:19:29Z
2023-09-24T04:20:10Z,42.805,6.029,13.3059,4.60125,2470.73,2023-9-24T06:22:32Z
2023-09-24T04:23:13Z,42.805,6.029,13.3045,4.60106,2470.679,2023-9-24T06:25:36Z
2023-09-24T04:26:16Z,42.805,6.029,13.3046,4.60113,2470.707,2023-9-24T06:28:39Z
2023-09-24T04:29:19Z,42.805,6.029,13.3058,4.60149,2470.707,2023-9-24T06:31:42Z
2023-09-24T04:32:22Z,42.805,6.029,13.3047,4.60127,2470.693,2023-9-24T06:34:45Z
2023-09-24T04:35:25Z,42.805,6.029,13.3047,4.60111,2470.717,2023-9-24T06:37:48Z
2023-09-24T04:38:28Z,42.805,6.029,13.3047,4.60136,2470.707,2023-9-24T06:40:51Z
2023-09-24T04:41:31Z,42.805,6.029,13.3054,4.60137,2470.74,2023-9-24T06:43:54Z
2023-09-24T04:44:34Z,42.805,6.029,13.3058,4.60143,2470.73,2023-9-24T06:46:57Z
2023-09-24T04:47:38Z,42.805,6.029,13.3046,4.60140,2470.707,2023-9-24T06:50:00Z
2023-09-24T04:50:41Z,42.805,6.029,13.3058,4.60148,2470.693,2023-9-24T06:53:03Z
2023-09-24T04:53:44Z,42.805,6.029,13.3051,4.60152,2470.67,2023-9-24T06:56:06Z
2023-09-24T04:56:47Z,42.805,6.029,13.3041,4.60124,2470.67,2023-9-24T06:59:09Z
2023-09-24T04:59:50Z,42.805,6.029,13.3033,4.60137,2470.693,2023-9-24T07:02:13Z
2023-09-24T05:02:53Z,42.805,6.029,13.3041,4.60135,2470.73,2023-9-24T07:05:16Z
2023-09-24T05:05:56Z,42.805,6.029,13.3039,4.60134,2470.693,2023-9-24T07:08:19Z
2023-09-24T05:08:59Z,42.805,6.029,13.3038,4.60143,2470.684,2023-9-24T07:11:22Z
2023-09-24T05:12:02Z,42.805,6.029,13.3048,4.60167,2470.73,2023-9-24T07:14:25Z
2023-09-24T05:15:05Z,42.805,6.029,13.3058,4.60149,2470.693,2023-9-24T07:17:28Z
2023-09-24T05:18:08Z,42.805,6.029,13.3045,4.60132,2470.717,2023-9-24T07:20:31Z
2023-09-24T05:21:11Z,42.805,6.029,13.3050,4.60138,2470.693,2023-9-24T07:23:34Z
2023-09-24T05:24:14Z,42.805,6.029,13.3036,4.60125,2470.693,2023-9-24T07:26:37Z
2023-09-24T05:27:18Z,42.805,6.029,13.3046,4.60143,2470.693,2023-9-24T07:29:40Z
2023-09-24T05:30:21Z,42.805,6.029,13.3042,4.60136,2470.707,2023-9-24T07:32:43Z
2023-09-24T05:33:24Z,42.805,6.029,13.3043,4.60125,2470.693,2023-9-24T07:35:46Z
2023-09-24T05:36:27Z,42.805,6.029,13.3048,4.60155,2470.67,2023-9-24T07:38:50Z
2023-09-24T05:39:30Z,42.805,6.029,13.3046,4.60150,2470.693,2023-9-24T07:41:53Z
2023-09-24T05:42:33Z,42.805,6.029,13.3039,4.60136,2470.684,2023-9-24T07:44:56Z
2023-09-24T05:45:36Z,42.805,6.029,13.3051,4.60170,2470.707,2023-9-24T07:47:59Z
2023-09-24T05:48:39Z,42.805,6.029,13.3036,4.60152,2470.707,2023-9-24T07:51:02Z
2023-09-24T05:51:42Z,42.805,6.029,13.3043,4.60142,2470.67,2023-9-24T07:54:05Z
2023-09-24T05:54:45Z,42.805,6.029,13.3038,4.60146,2470.707,2023-9-24T07:57:08Z
2023-09-24T05:57:48Z,42.805,6.029,13.3044,4.60142,2470.693,2023-9-24T08:00:11Z
2023-09-24T06:00:51Z,42.805,6.029,13.3043,4.60151,2470.693,2023-9-24T08:03:14Z
2023-09-24T06:03:55Z,42.805,6.029,13.3044,4.60140,2470.67,2023-9-24T08:06:17Z
2023-09-24T06:06:58Z,42.805,6.029,13.3037,4.60120,2470.67,2023-9-24T08:09:20Z
2023-09-24T06:10:01Z,42.805,6.029,13.3045,4.60131,2470.67,2023-9-24T08:12:23Z
2023-09-24T06:13:04Z,42.805,6.029,13.3047,4.60141,2470.693,2023-9-24T08:15:27Z
2023-09-24T06:16:07Z,42.805,6.029,13.3035,4.60140,2470.684,2023-9-24T08:18:30Z
2023-09-24T06:19:10Z,42.805,6.029,13.3036,4.60131,2470.707,2023-9-24T08:21:33Z
2023-09-24T06:22:13Z,42.805,6.029,13.3046,4.60136,2470.646,2023-9-24T08:24:36Z
2023-09-24T06:25:16Z,42.805,6.029,13.3041,4.60132,2470.684,2023-9-24T08:27:39Z
2023-09-24T06:28:19Z,42.805,6.029,13.3043,4.60127,2470.693,2023-9-24T08:30:42Z
2023-09-24T06:31:22Z,42.805,6.029,13.3036,4.60133,2470.693,2023-9-24T08:33:45Z
2023-09-24T06:34:25Z,42.805,6.029,13.3044,4.60147,2470.67,2023-9-24T08:36:48Z
2023-09-24T06:37:28Z,42.805,6.029,13.3046,4.60127,2470.684,2023-9-24T08:39:51Z
2023-09-24T06:40:32Z,42.805,6.029,13.3043,4.60145,2470.661,2023-9-24T08:42:54Z
2023-09-24T06:43:35Z,42.805,6.029,13.3040,4.60138,2470.67,2023-9-24T08:45:57Z
2023-09-24T06:46:38Z,42.805,6.029,13.3034,4.60134,2470.693,2023-9-24T08:49:00Z
2023-09-24T06:49:41Z,42.805,6.029,13.3039,4.60135,2470.67,2023-9-24T08:52:04Z
2023-09-24T06:52:44Z,42.805,6.029,13.3043,4.60144,2470.693,2023-9-24T08:55:07Z
2023-09-24T06:55:47Z,42.805,6.029,13.3046,4.60154,2470.646,2023-9-24T08:58:10Z
2023-09-24T06:58:50Z,42.805,6.029,13.3040,4.60140,2470.646,2023-9-24T09:01:13Z
2023-09-24T07:01:53Z,42.805,6.029,13.3056,4.60140,2470.684,2023-9-24T09:04:16Z
2023-09-24T07:04:56Z,42.805,6.029,13.3041,4.60157,2470.684,2023-9-24T09:07:19Z
2023-09-24T07:07:59Z,42.805,6.029,13.3040,4.60130,2470.646,2023-9-24T09:10:22Z
2023-09-24T07:11:02Z,42.805,6.029,13.3045,4.60137,2470.67,2023-9-24T09:13:25Z
2023-09-24T07:14:05Z,42.805,6.029,13.3049,4.60149,2470.67,2023-9-24T09:16:28Z
2023-09-24T07:17:09Z,42.805,6.029,13.3043,4.60157,2470.684,2023-9-24T09:19:31Z
2023-09-24T07:20:12Z,42.805,6.029,13.3040,4.60157,2470.67,2023-9-24T09:22:34Z
2023-09-24T07:23:15Z,42.805,6.029,13.3043,4.60138,2470.67,2023-9-24T09:25:37Z
2023-09-24T07:26:18Z,42.805,6.029,13.3043,4.60140,2470.646,2023-9-24T09:28:40Z
2023-09-24T07:29:21Z,42.805,6.029,13.3041,4.60132,2470.684,2023-9-24T09:31:44Z
2023-09-24T07:32:24Z,42.805,6.029,13.3048,4.60146,2470.67,2023-9-24T09:34:47Z
2023-09-24T07:35:27Z,42.805,6.029,13.3047,4.60142,2470.684,2023-9-24T09:37:50Z
2023-09-24T07:38:30Z,42.805,6.029,13.3040,4.60127,2470.67,2023-9-24T09:40:53Z
2023-09-24T07:41:33Z,42.805,6.029,13.3055,4.60144,2470.661,2023-9-24T09:43:56Z
2023-09-24T07:44:36Z,42.805,6.029,13.3045,4.60135,2470.67,2023-9-24T09:46:59Z
2023-09-24T07:47:39Z,42.805,6.029,13.3038,4.60135,2470.67,2023-9-24T09:50:02Z
2023-09-24T07:50:42Z,42.805,6.029,13.3045,4.60135,2470.693,2023-9-24T09:53:05Z
2023-09-24T07:53:45Z,42.805,6.029,13.3039,4.60137,2470.67,2023-9-24T09:56:08Z
2023-09-24T07:56:49Z,42.805,6.029,13.3036,4.60127,2470.646,2023-9-24T09:59:11Z
2023-09-24T07:59:52Z,42.805,6.029,13.3038,4.60140,2470.624,2023-9-24T10:02:14Z
2023-09-24T08:02:55Z,42.805,6.029,13.3037,4.60134,2470.67,2023-9-24T10:05:17Z
2023-09-24T08:05:58Z,42.805,6.029,13.3042,4.60139,2470.684,2023-9-24T10:08:21Z
2023-09-24T08:09:01Z,42.805,6.029,13.3043,4.60148,2470.646,2023-9-24T10:11:24Z
2023-09-24T08:12:04Z,42.805,6.029,13.3046,4.60150,2470.67,2023-9-24T10:14:27Z
2023-09-24T08:15:07Z,42.805,6.029,13.3032,4.60135,2470.684,2023-9-24T10:17:30Z
2023-09-24T08:18:10Z,42.805,6.029,13.3052,4.60139,2470.67,2023-9-24T10:20:33Z
2023-09-24T08:21:13Z,42.805,6.029,13.3048,4.60137,2470.646,2023-9-24T10:23:36Z
2023-09-24T08:24:16Z,42.805,6.029,13.3039,4.60137,2470.684,2023-9-24T10:26:39Z
2023-09-24T08:27:19Z,42.805,6.029,13.3042,4.60137,2470.67,2023-9-24T10:29:42Z
2023-09-24T08:30:22Z,42.805,6.029,13.3043,4.60148,2470.684,2023-9-24T10:32:45Z
2023-09-24T08:33:26Z,42.805,6.029,13.3043,4.60129,2470.637,2023-9-24T10:35:48Z
2023-09-24T08:36:29Z,42.805,6.029,13.3040,4.60137,2470.67,2023-9-24T10:38:51Z
2023-09-24T08:39:32Z,42.805,6.029,13.3039,4.60140,2470.661,2023-9-24T10:41:54Z
2023-09-24T08:42:35Z,42.805,6.029,13.3035,4.60127,2470.67,2023-9-24T10:44:58Z
2023-09-24T08:45:38Z,42.805,6.029,13.3049,4.60142,2470.61,2023-9-24T10:48:01Z
2023-09-24T08:48:41Z,42.805,6.029,13.3038,4.60143,2470.67,2023-9-24T10:51:04Z
2023-09-24T08:51:44Z,42.805,6.029,13.3045,4.60143,2470.661,2023-9-24T10:54:07Z
2023-09-24T08:54:47Z,42.805,6.029,13.3045,4.60142,2470.646,2023-9-24T10:57:10Z
2023-09-24T08:57:50Z,42.805,6.029,13.3039,4.60139,2470.684,2023-9-24T11:00:13Z
2023-09-24T09:00:53Z,42.805,6.029,13.3039,4.60156,2470.646,2023-9-24T11:03:16Z
2023-09-24T09:03:56Z,42.805,6.029,13.3038,4.60145,2470.684,2023-9-24T11:06:19Z
2023-09-24T09:06:59Z,42.805,6.029,13.3046,4.60134,2470.707,2023-9-24T11:09:22Z
2023-09-24T09:10:03Z,42.805,6.029,13.3042,4.60140,2470.67,2023-9-24T11:12:25Z
2023-09-24T09:13:06Z,42.805,6.029,13.3045,4.60135,2470.67,2023-9-24T11:15:28Z
2023-09-24T09:16:09Z,42.805,6.029,13.3041,4.60127,2470.661,2023-9-24T11:18:32Z
2023-09-24T09:19:12Z,42.805,6.029,13.3042,4.60132,2470.67,2023-9-24T11:21:35Z
2023-09-24T09:22:15Z,42.805,6.029,13.3053,4.60145,2470.717,2023-9-24T11:24:38Z
2023-09-24T09:25:18Z,42.805,6.029,13.3045,4.60144,2470.693,2023-9-24T11:27:41Z
2023-09-24T09:28:21Z,42.805,6.029,13.3046,4.60135,2470.67,2023-9-24T11:30:44Z
2023-09-24T09:31:24Z,42.805,6.029,13.3040,4.60134,2470.684,2023-9-24T11:33:47Z
2023-09-24T09:34:27Z,42.805,6.029,13.3045,4.60155,2470.707,2023-9-24T11:36:50Z
2023-09-24T09:37:30Z,42.805,6.029,13.3039,4.60127,2470.67,2023-9-24T11:39:53Z
2023-09-24T09:40:33Z,42.805,6.029,13.3046,4.60132,2470.684,2023-9-24T11:42:56Z
2023-09-24T09:43:37Z,42.805,6.029,13.3040,4.60135,2470.693,2023-9-24T11:45:59Z
2023-09-24T09:46:40Z,42.805,6.029,13.3052,4.60130,2470.717,2023-9-24T11:49:02Z
2023-09-24T09:49:43Z,42.805,6.029,13.3051,4.60147,2470.717,2023-9-24T11:52:05Z
2023-09-24T09:52:46Z,42.805,6.029,13.3039,4.60132,2470.684,2023-9-24T11:55:09Z
2023-09-24T09:55:49Z,42.805,6.029,13.3039,4.60127,2470.67,2023-9-24T11:58:12Z
2023-09-24T09:58:52Z,42.805,6.029,13.3047,4.60139,2470.707,2023-9-24T12:01:15Z
2023-09-24T10:01:55Z,42.805,6.029,13.3053,4.60134,2470.646,2023-9-24T12:04:18Z
2023-09-24T10:04:58Z,42.805,6.029,13.3041,4.60132,2470.707,2023-9-24T12:07:21Z
2023-09-24T10:08:01Z,42.805,6.029,13.3039,4.60132,2470.693,2023-9-24T12:10:24Z
2023-09-24T10:11:04Z,42.805,6.029,13.3043,4.60142,2470.707,2023-9-24T12:13:27Z
2023-09-24T10:14:07Z,42.805,6.029,13.3040,4.60132,2470.707,2023-9-24T12:16:30Z
2023-09-24T10:17:10Z,42.805,6.029,13.3038,4.60138,2470.693,2023-9-24T12:19:33Z
2023-09-24T10:20:14Z,42.805,6.029,13.3046,4.60145,2470.693,2023-9-24T12:22:36Z
2023-09-24T10:23:17Z,42.805,6.029,13.3039,4.60123,2470.693,2023-9-24T12:25:39Z
2023-09-24T10:26:20Z,42.805,6.029,13.3043,4.60141,2470.693,2023-9-24T12:28:42Z
2023-09-24T10:29:23Z,42.805,6.029,13.3041,4.60125,2470.693,2023-9-24T12:31:46Z
2023-09-24T10:32:26Z,42.805,6.029,13.3035,4.60144,2470.717,2023-9-24T12:34:49Z
2023-09-24T10:35:29Z,42.805,6.029,13.3041,4.60137,2470.707,2023-9-24T12:37:52Z
2023-09-24T10:38:32Z,42.805,6.029,13.3041,4.60126,2470.717,2023-9-24T12:40:55Z
2023-09-24T10:41:35Z,42.805,6.029,13.3041,4.60132,2470.693,2023-9-24T12:43:58Z
2023-09-24T10:44:38Z,42.805,6.029,13.3036,4.60123,2470.717,2023-9-24T12:47:01Z
2023-09-24T10:47:41Z,42.805,6.029,13.3041,4.60139,2470.717,2023-9-24T12:50:04Z
2023-09-24T10:50:44Z,42.805,6.029,13.3039,4.60150,2470.707,2023-9-24T12:53:07Z
2023-09-24T10:53:47Z,42.805,6.029,13.3036,4.60135,2470.73,2023-9-24T12:56:10Z
2023-09-24T10:56:51Z,42.805,6.029,13.3044,4.60134,2470.707,2023-9-24T12:59:13Z
2023-09-24T10:59:54Z,42.805,6.029,13.3042,4.60122,2470.693,2023-9-24T13:02:16Z
2023-09-24T11:02:57Z,42.805,6.029,13.3040,4.60125,2470.707,2023-9-24T13:05:19Z
2023-09-24T11:06:00Z,42.805,6.029,13.3036,4.60126,2470.717,2023-9-24T13:08:23Z
2023-09-24T11:09:03Z,42.805,6.029,13.3036,4.60143,2470.73,2023-9-24T13:11:26Z
2023-09-24T11:12:06Z,42.805,6.029,13.3047,4.60137,2470.74,2023-9-24T13:14:29Z
2023-09-24T11:15:09Z,42.805,6.029,13.3042,4.60125,2470.693,2023-9-24T13:17:32Z
2023-09-24T11:18:12Z,42.805,6.029,13.3040,4.60127,2470.717,2023-9-24T13:20:35Z
2023-09-24T11:21:15Z,42.805,6.029,13.3043,4.60129,2470.777,2023-9-24T13:23:38Z
2023-09-24T11:24:18Z,42.805,6.029,13.3036,4.60148,2470.707,2023-9-24T13:26:41Z
2023-09-24T11:27:21Z,42.805,6.029,13.3043,4.60138,2470.73,2023-9-24T13:29:44Z
2023-09-24T11:30:24Z,42.805,6.029,13.3033,4.60140,2470.73,2023-9-24T13:32:47Z
2023-09-24T11:33:28Z,42.805,6.029,13.3040,4.60143,2470.74,2023-9-24T13:35:50Z
2023-09-24T11:36:31Z,42.805,6.029,13.3043,4.60142,2470.74,2023-9-24T13:38:53Z
2023-09-24T11:39:34Z,42.805,6.029,13.3037,4.60143,2470.763,2023-9-24T13:41:56Z
2023-09-24T11:42:37Z,42.805,6.029,13.3047,4.60137,2470.717,2023-9-24T13:45:00Z
2023-09-24T11:45:40Z,42.805,6.029,13.3033,4.60123,2470.777,2023-9-24T13:48:03Z
2023-09-24T11:48:43Z,42.805,6.029,13.3036,4.60133,2470.73,2023-9-24T13:51:06Z
2023-09-24T11:51:46Z,42.805,6.029,13.3043,4.60166,2470.754,2023-9-24T13:54:09Z
2023-09-24T11:54:49Z,42.805,6.029,13.3046,4.60155,2470.74,2023-9-24T13:57:12Z
2023-09-24T11:57:52Z,42.805,6.029,13.3043,4.60138,2470.74,2023-9-24T14:00:15Z
2023-09-24T12:00:55Z,42.805,6.029,13.3041,4.60132,2470.74,2023-9-24T14:03:18Z
2023-09-24T12:03:58Z,42.805,6.029,13.3044,4.60132,2470.74,2023-9-24T14:06:21Z
2023-09-24T12:07:02Z,42.805,6.029,13.3054,4.60132,2470.763,2023-9-24T14:09:24Z
2023-09-24T12:10:05Z,42.805,6.029,13.3041,4.60140,2470.754,2023-9-24T14:12:27Z
2023-09-24T12:13:08Z,42.805,6.029,13.3044,4.60144,2470.763,2023-9-24T14:15:30Z
2023-09-24T12:16:11Z,42.805,6.029,13.3040,4.60139,2470.777,2023-9-24T14:18:33Z
2023-09-24T12:19:14Z,42.805,6.029,13.3044,4.60138,2470.787,2023-9-24T14:21:37Z
2023-09-24T12:22:17Z,42.805,6.029,13.3037,4.60139,2470.754,2023-9-24T14:24:40Z
2023-09-24T12:25:20Z,42.805,6.029,13.3035,4.60140,2470.754,2023-9-24T14:27:43Z
2023-09-24T12:28:23Z,42.805,6.029,13.3038,4.60137,2470.777,2023-9-24T14:30:46Z
2023-09-24T12:31:28Z,42.805,6.029,13.3043,4.60140,2470.763,2023-9-24T14:33:51Z
2023-09-24T12:34:31Z,42.805,6.029,13.3043,4.60132,2470.74,2023-9-24T14:36:54Z
2023-09-24T12:37:34Z,42.805,6.029,13.3043,4.60146,2470.763,2023-9-24T14:39:57Z
2023-09-24T12:40:37Z,42.805,6.029,13.3043,4.60143,2470.74,2023-9-24T14:43:00Z
2023-09-24T12:43:40Z,42.805,6.029,13.3048,4.60140,2470.74,2023-9-24T14:46:03Z
2023-09-24T12:46:43Z,42.805,6.029,13.3041,4.60144,2470.763,2023-9-24T14:49:06Z
2023-09-24T12:49:46Z,42.805,6.029,13.3037,4.60135,2470.8,2023-9-24T14:52:09Z
2023-09-24T12:52:49Z,42.805,6.029,13.3037,4.60132,2470.763,2023-9-24T14:55:12Z
2023-09-24T12:55:53Z,42.805,6.029,13.3039,4.60138,2470.787,2023-9-24T14:58:15Z
2023-09-24T12:58:56Z,42.805,6.029,13.3051,4.60151,2470.763,2023-9-24T15:01:18Z
2023-09-24T13:01:59Z,42.805,6.029,13.3051,4.60144,2470.777,2023-9-24T15:04:21Z
2023-09-24T13:05:02Z,42.805,6.029,13.3045,4.60146,2470.8,2023-9-24T15:07:25Z
2023-09-24T13:08:05Z,42.805,6.029,13.3043,4.60144,2470.787,2023-9-24T15:10:28Z
2023-09-24T13:11:08Z,42.805,6.029,13.3036,4.60141,2470.763,2023-9-24T15:13:31Z
2023-09-24T13:14:11Z,42.805,6.029,13.3046,4.60141,2470.763,2023-9-24T15:16:34Z
2023-09-24T13:17:14Z,42.805,6.029,13.3055,4.60151,2470.787,2023-9-24T15:19:37Z
2023-09-24T13:20:17Z,42.805,6.029,13.3043,4.60135,2470.787,2023-9-24T15:22:40Z
2023-09-24T13:23:20Z,42.805,6.029,13.3050,4.60134,2470.787,2023-9-24T15:25:43Z
2023-09-24T13:26:23Z,42.805,6.029,13.3046,4.60140,2470.777,2023-9-24T15:28:46Z
2023-09-24T13:29:27Z,42.805,6.029,13.3051,4.60147,2470.763,2023-9-24T15:31:49Z
2023-09-24T13:32:30Z,42.805,6.029,13.3050,4.60162,2470.81,2023-9-24T15:34:52Z
2023-09-24T13:35:33Z,42.805,6.029,13.3049,4.60150,2470.81,2023-9-24T15:37:55Z
2023-09-24T13:38:36Z,42.805,6.029,13.3051,4.60142,2470.787,2023-9-24T15:40:59Z
2023-09-24T13:41:39Z,42.805,6.029,13.3053,4.60156,2470.81,2023-9-24T15:44:02Z
2023-09-24T13:44:42Z,42.805,6.029,13.3041,4.60162,2470.787,2023-9-24T15:47:05Z
2023-09-24T13:47:45Z,42.805,6.029,13.3046,4.60173,2470.824,2023-9-24T15:50:08Z
2023-09-24T13:50:48Z,42.805,6.029,13.3042,4.60146,2470.787,2023-9-24T15:53:11Z
2023-09-24T13:53:51Z,42.805,6.029,13.3042,4.60144,2470.8,2023-9-24T15:56:14Z
2023-09-24T13:56:54Z,42.805,6.029,13.3047,4.60147,2470.81,2023-9-24T15:59:17Z
2023-09-24T13:59:57Z,42.805,6.029,13.3039,4.60170,2470.81,2023-9-24T16:02:20Z
2023-09-24T14:03:00Z,42.805,6.029,13.3040,4.60140,2470.763,2023-9-24T16:05:23Z
2023-09-24T14:06:04Z,42.805,6.029,13.3050,4.60162,2470.833,2023-9-24T16:08:26Z
2023-09-24T14:09:07Z,42.805,6.029,13.3047,4.60147,2470.787,2023-9-24T16:11:29Z
2023-09-24T14:12:10Z,42.805,6.029,13.3045,4.60145,2470.8,2023-9-24T16:14:32Z
2023-09-24T14:15:13Z,42.805,6.029,13.3042,4.60172,2470.787,2023-9-24T16:17:36Z
2023-09-24T14:18:16Z,42.805,6.029,13.3046,4.60163,2470.81,2023-9-24T16:20:39Z
2023-09-24T14:21:19Z,42.805,6.029,13.3061,4.60160,2470.824,2023-9-24T16:23:42Z
2023-09-24T14:24:22Z,42.805,6.029,13.3050,4.60145,2470.824,2023-9-24T16:26:45Z
2023-09-24T14:27:25Z,42.805,6.029,13.3043,4.60149,2470.81,2023-9-24T16:29:48Z
2023-09-24T14:30:27Z,42.805,6.029,13.3047,4.60157,2470.8,2023-9-24T16:32:49Z
2023-09-24T14:33:30Z,42.805,6.029,13.3045,4.60152,2470.787,2023-9-24T16:35:53Z
2023-09-24T14:36:33Z,42.805,6.029,13.3039,4.60157,2470.847,2023-9-24T16:38:56Z
2023-09-24T14:39:36Z,42.805,6.029,13.3041,4.60125,2470.81,2023-9-24T16:41:59Z
2023-09-24T14:42:39Z,42.805,6.029,13.3036,4.60144,2470.81,2023-9-24T16:45:02Z
2023-09-24T14:45:42Z,42.805,6.029,13.3052,4.60130,2470.824,2023-9-24T16:48:05Z
2023-09-24T14:48:45Z,42.805,6.029,13.3038,4.60133,2470.777,2023-9-24T16:51:08Z
2023-09-24T14:51:48Z,42.805,6.029,13.3045,4.60151,2470.81,2023-9-24T16:54:11Z
2023-09-24T14:54:51Z,42.805,6.029,13.3049,4.60172,2470.81,2023-9-24T16:57:14Z
2023-09-24T14:57:55Z,42.805,6.029,13.3051,4.60150,2470.82,2023-9-24T17:00:17Z
2023-09-24T15:00:58Z,42.805,6.029,13.3045,4.60137,2470.824,2023-9-24T17:03:20Z
2023-09-24T15:04:01Z,42.805,6.029,13.3041,4.60146,2470.833,2023-9-24T17:06:23Z
2023-09-24T15:07:04Z,42.805,6.029,13.3044,4.60164,2470.787,2023-9-24T17:09:27Z
2023-09-24T15:10:07Z,42.805,6.029,13.3042,4.60155,2470.81,2023-9-24T17:12:30Z
2023-09-24T15:13:10Z,42.805,6.029,13.3044,4.60148,2470.871,2023-9-24T17:15:33Z